Regional Weather Roundup
Issued by NWS Charleston, SC

Current Version | Previous Version | Graphics & Text | Print | Product List | Glossary On
Versions: 1 2 3 4 5 6 7 8 9 10 11 12 13 14 15 16 17 18 19 20 21 22 23 24 25 26 27 28 29 30 31 32 33 34 35 36 37 38 39 40 41 42 43 44 45 46 47 48 49 50
000 ASUS42 KCHS 270627 RWRCHS REGIONAL WEATHER ROUNDUP NATIONAL WEATHER SERVICE CHARLESTON SC 200 AM EDT MON MAR 27 2017 NOTE: "FAIR" INDICATES FEW OR NO CLOUDS BELOW 12,000 FEET WITH NO SIGNIFICANT WEATHER AND/OR OBSTRUCTIONS TO VISIBILITY. NOT ALL STATIONS ARE QUALITY CONTROLLED. USE DATA WITH CAUTION... ESPECIALLY DEWPOINT OBSERVATIONS. SCZ027-030-031-034>040-042>050-270700- ...SOUTHEAST SOUTH CAROLINA... CITY SKY/WX TMP DP RH WIND PRES REMARKS N CHARLESTON PTCLDY 60 55 83 S7 30.14F 6HR MIN TEMP: 60; 6HR MAX TEMP: 68; WATERFRONT PRK N/A 65 60 84 S7 30.14S JOHNS ISLAND FAIR 63 59 88 S6 30.14F PINOPOLIS N/A 63 57 82 CALM 30.05F MONCKS CORNER FAIR 57 55 94 CALM 30.13F SUMMERVILLE FAIR 59 55 88 CALM 30.14F BEAUFORT MCAS CLEAR 63 62 97 SE5 30.13F 6HR MIN TEMP: 61; 6HR MAX TEMP: 69; BEAUFORT ARPT FAIR 63 61 94 SE3 30.12F HILTON HEAD IS CLEAR 63 63 100 CALM 30.14F WALTERBORO CLEAR 59 57 94 E5 30.14S ALLENDALE FAIR 61 59 94 S5 30.11F ...SOUTHERN MIDLANDS AND PEE DEE... CITY SKY/WX TMP DP RH WIND PRES REMARKS GEORGETOWN FAIR 54 52 94 CALM 30.15F KINGSTREE FAIR 55 54 94 CALM 30.14S FOG ORANGEBURG CLEAR 60 57 89 S6 30.13F 6HR MIN TEMP: 60; 6HR MAX TEMP: 68; BARNWELL MOCLDY 63 61 94 CALM 30.12F AIKEN FAIR 59 55 88 S6 30.14F MANNING FAIR 59 55 88 CALM 30.13F COLUMBIA MOCLDY 64 58 80 S6 30.11S 6HR MIN TEMP: 64; 6HR MAX TEMP: 73; SUMTER CLEAR 60 55 83 S3 30.10F 6HR MIN TEMP: 60; 6HR MAX TEMP: 71; FLORENCE CLEAR 58 58 100 S6 30.14F 6HR MIN TEMP: 58; 6HR MAX TEMP: 71; MYRTLE BEACH CLEAR 63 57 82 S9 30.16F N MYRTLE BEACH CLEAR 64 57 78 S8 30.14F 6HR MIN TEMP: 63; 6HR MAX TEMP: 66; $$ GAZ063-065-086>088-099>101-113>116-118-119-134>141-150-270700- ...SOUTHEAST GEORGIA... CITY SKY/WX TMP DP RH WIND PRES REMARKS SAVANNAH ARPT CLEAR 63 58 83 SE6 30.13F 6HR MIN TEMP: 63; 6HR MAX TEMP: 70; HUNTER AAF CLEAR 64 63 97 CALM 30.11F 6HR MIN TEMP: 63; 6HR MAX TEMP: 68; FORT STEWART CLEAR 57 55 94 CALM 30.10F 6HR MIN TEMP: 57; 6HR MAX TEMP: 68; STATESBORO CLEAR 62 62 100 SE5 30.12F SYLVANIA CLEAR N/A N/A N/A CALM 30.13F CLAXTON FAIR N/A N/A N/A CALM 30.12F ...CSRA...CENTRAL AND FAR SOUTHEAST GEORGIA... CITY SKY/WX TMP DP RH WIND PRES REMARKS THOMSON CLEAR 63 57 79 SW6 30.14S AUGUSTA-BUSH CLEAR 65 58 78 SE8 30.10F 6HR MIN TEMP: 65; 6HR MAX TEMP: 74; AUGUSTA-DANIEL CLEAR 64 56 75 SE6 30.11F SWAINSBORO FAIR 63 59 88 SE7 30.12S VIDALIA PTCLDY 63 59 88 CALM 30.11F EASTMAN FAIR 67 51 56 SE5 30.11F HAZLEHURST FAIR 64 62 91 S6 30.10S ALMA PTCLDY 62 60 93 SE3 30.11F 6HR MIN TEMP: 62; 6HR MAX TEMP: 74; WAYCROSS CLEAR 65 65 97 S3 30.11F JESUP FAIR 59 55 88 CALM 30.12F BAXLEY MOCLDY 63 63 100 S3 30.11F BRUNSWICK FOG 61 61 100 CALM 30.13S VSB 1 SAINT SIMONS CLEAR 66 62 87 SE5 30.12S 6HR MIN TEMP: 66; 6HR MAX TEMP: 67; $$ SCZ027-028-034-036>038-045-046-048>050-GAZ119-141-270700- ...LAKE AND SUPPLEMENTAL COASTAL OBSERVATIONS... STATION/POSITION TIME TEMP WIND PRES WAVE SWELL AIR SEA DIR/SP/G HT/PER HT/PER/DIR (UTC) (F) (DEG/KT/KT) (MB) (FT/S) (FT/S/D) WINYAH BAY 0545 61 CALM 1021.0S LAKE MURRAY 0530 65 160/ 7/ 9 1019.3S ACE BASIN NERRS 0530 60 CALM 1021.0S FORT PULASKI 0600 64 63 140/ 4/ 6 1020.5 SAPELO ISLAND 0600 66 140/ 6 1020.0 $$ ANZ835-935-AMZ111-154-330-350-352-354-370-450-454-472-270700- ...C-MAN AND BUOY OBSERVATIONS... STATION/POSITION TIME TEMP WIND PRES WAVE SWELL AIR SEA DIR/SP/G HT/PER HT/PER/DIR (UTC) (F) (DEG/KT/KT) (MB) (FT/S) (FT/S/D) BUOY 41004 0550 71 73 140/ 12/ 14 1020.3F 4/ 9 3/140/ 9 BUOY 41008 0550 65 63 120/ 6/ 8 1020.2S 3/ 9 3/100/ 9 FOLLY BEACH CMAN 0600 64 170/ 7/ 8 1021.2F CAPERS NEARSHORE 0508 63 150/ 4/ 8 1020.9F FRIPP NEARSHORE 0608 62 62 130/ 2/ 6 1020.4F STATION/POSITION TIME TEMP WIND PRES WAVE SWELL AIR SEA DIR/SP/G HT/PER HT/PER/DIR (UTC) (F) (DEG/KT/KT) (MB) (FT/S) (FT/S/D) 5E ST. MARYS GA 0600 65 N/A 3/10 2/120/11 FRYING PAN BUOY 0610 71 76 150/ 12/ 16 1021.0 BUOY 41025 0550 69 76 170/ 12/ 16 1022.3F 4/ 8 3/130/ 8 CAPE LOOKOUT NC 0600 65 140/ 10/ 10 1021.3F BUOY 41002 0550 67 72 90/ 12/ 16 1021.5F 6/ 8 5/120/ 8 BUOY 41010 NOT AVBL ST AUGUSTINE FL 0600 68 70 160/ 7/ 7 1020.6F $$

USA.gov is the U.S. government's official web portal to all federal, state and local government web resources and services.